Lapse_Rate
5.7 5.8 5.8 5.3 5.8 6.0 6.1 5.7 5.3 5.1 4.9 4.8 4.5 3.9 3.1 2.9 2.7 2.5 2.5 2.3 2.3 2.1 2.1 2.6 2.6 2.7 5.6 8.0 7.9 6.8 4.2 5.4 7.7 7.9 8.9 8.5 7.9 7.5 6.5 6.6 7.0 6.5 6.5 7.3 7.6 7.6 7.6
6.8 6.7 6.9 6.6 6.5 6.4 6.7 6.7 5.6 5.4 5.5 5.6 5.6 5.0 3.6 2.7 2.5 2.4 2.6 2.3 1.7 1.6 1.7 2.7 2.7 3.0 7.5 6.7 7.5 6.6 6.4 7.3 9.0 9.2 8.9 8.8 8.0 8.2 7.2 6.8 6.5 6.9 6.9 7.0 7.3 7.3 7.4
7.3 7.2 7.5 7.4 7.5 7.6 7.1 7.2 6.3 6.4 6.1 6.3 5.6 4.3 3.2 2.7 2.2 2.3 2.2 2.0 1.4 1.5 1.8 2.4 2.9 4.9 8.1 7.5 7.4 7.5 7.2 8.0 9.0 9.3 8.6 9.0 8.9 8.0 7.7 6.5 7.6 7.1 6.5 6.5 6.6 7.0 6.6
7.5 7.7 7.9 7.7 7.4 7.8 7.8 7.4 7.2 6.9 6.6 6.4 5.5 4.1 3.4 2.4 2.2 2.1 2.1 1.6 1.5 1.4 2.1 3.8 4.0 6.3 7.7 7.1 7.2 6.9 8.3 8.0 7.9 8.2 9.1 9.3 9.1 8.3 7.6 7.8 6.9 6.5 6.5 6.5 6.5 6.5 6.8
7.9 7.7 7.7 7.5 7.6 7.6 7.5 7.3 7.3 7.0 6.7 6.4 6.1 5.6 3.5 2.5 2.3 2.2 2.2 1.8 1.7 3.0 4.9 4.7 7.6 8.5 7.4 7.1 7.9 9.5 8.5 8.7 8.8 8.1 8.3 9.2 8.6 7.7 7.3 6.5 6.5 6.5 6.5 6.5 6.5 6.5 6.5
7.9 7.9 7.9 7.9 7.7 7.6 7.5 7.5 7.3 7.1 6.9 6.8 6.3 5.1 4.2 3.3 2.9 2.6 2.2 1.9 3.6 4.6 6.5 8.7 8.3 7.0 7.9 7.8 8.9 9.2 9.6 8.5 8.5 8.4 8.0 7.9 7.6 6.5 6.5 6.5 6.5 6.5 6.5 6.5 6.5 6.5 6.5
7.7 8.1 8.1 8.1 7.7 7.8 7.8 7.8 7.6 7.4 7.3 6.8 6.4 5.8 5.2 4.7 3.9 3.2 4.1 7.7 8.5 8.0 8.6 7.7 7.7 7.8 8.2 9.0 9.2 8.8 9.2 8.7 8.5 7.8 6.5 7.1 6.5 6.5 6.5 6.5 6.5 6.5 6.5 6.5 6.5 6.5 6.5
6.5 7.6 8.3 8.2 8.0 7.7 7.4 7.4 7.2 7.2 7.1 6.8 6.2 5.7 5.7 4.5 3.8 3.4 7.1 8.0 7.6 5.9 7.2 8.1 8.0 8.0 8.4 8.8 7.6 8.3 9.2 7.5 7.1 6.5 6.5 6.5 6.5 6.5 6.5 6.5 6.5 6.5 6.5 6.5 6.5 6.5 6.5
7.6 7.8 8.4 8.0 7.8 7.6 7.6 7.3 7.1 7.0 6.9 6.7 6.3 5.7 5.0 3.8 3.7 5.7 7.4 7.4 7.8 7.8 7.0 7.4 8.1 7.9 8.1 8.4 7.3 7.5 8.4 7.8 6.5 6.5 6.5 6.5 6.5 6.5 6.5 6.5 6.5 6.5 6.5 6.5 6.5 6.5 6.5
7.5 7.7 7.9 8.1 7.6 7.6 7.5 7.4 7.2 7.1 7.0 6.8 6.3 5.5 4.7 3.5 5.9 6.4 8.7 7.7 6.8 7.1 6.5 6.5 6.8 7.6 8.1 8.2 6.8 8.4 8.7 7.7 6.6 6.5 6.5 6.5 6.5 6.5 6.5 6.5 6.5 6.5 6.5 6.5 6.5 6.5 6.5
7.3 7.5 8.1 7.7 7.4 7.4 7.4 7.4 7.3 7.1 6.8 6.7 6.3 5.9 5.0 3.7 6.5 8.6 7.3 6.1 6.2 7.2 6.5 6.5 6.8 8.8 8.2 7.2 7.3 7.4 8.7 7.8 6.5 6.5 6.5 6.5 6.5 6.5 6.5 6.5 6.5 6.5 6.5 6.5 6.5 6.5 6.5
7.4 7.8 8.2 7.9 7.8 7.8 7.7 7.5 7.3 7.1 6.6 6.6 6.3 6.0 5.4 6.2 6.7 6.8 5.1 5.3 7.3 6.5 6.5 6.5 6.8 6.6 6.6 6.9 6.9 7.6 7.5 8.0 7.7 6.5 6.5 6.5 7.0 6.5 6.5 6.5 6.5 6.5 6.5 6.5 6.5 6.5 6.5
7.4 7.8 8.1 8.2 8.1 8.0 7.9 7.7 7.5 6.9 6.6 6.6 6.2 5.9 6.3 6.4 7.8 4.7 4.5 8.0 6.5 6.5 6.5 6.5 6.5 6.5 6.5 6.5 6.5 6.5 6.5 6.5 6.5 6.5 6.5 6.5 6.5 6.5 6.6 6.5 6.5 6.5 6.5 6.5 6.5 6.5 6.5
7.7 7.8 8.0 8.3 8.1 8.0 7.8 7.7 7.5 6.9 6.5 6.2 5.8 5.3 5.4 6.6 5.0 4.5 6.9 6.7 6.5 6.5 6.5 6.5 6.5 6.5 6.5 6.5 6.5 6.5 6.5 6.5 6.5 6.5 6.5 6.5 6.5 6.5 6.5 6.5 6.5 6.5 6.5 6.5 6.5 6.5 6.5
8.1 8.4 8.6 8.1 8.0 8.0 7.9 7.8 7.6 7.0 6.6 6.1 5.2 7.7 8.1 7.1 5.3 6.2 7.8 6.5 6.5 6.5 6.5 6.5 6.5 6.5 6.5 6.5 6.5 6.5 6.5 6.5 6.5 6.5 6.5 6.5 6.5 6.5 6.5 6.5 6.5 6.5 6.5 6.5 6.5 6.5 6.5
8.4 8.7 8.5 8.3 8.1 8.1 8.0 7.9 7.7 7.0 6.6 5.4 8.1 8.9 8.4 6.3 5.9 8.4 6.7 6.5 6.5 6.6 6.5 6.5 6.5 6.5 6.5 6.5 6.5 6.5 6.5 6.5 6.5 6.5 6.5 6.5 6.5 6.5 6.5 6.6 6.5 6.5 6.5 6.5 6.5 6.5 6.5
8.4 8.1 8.2 8.3 8.1 8.2 8.0 7.9 7.7 7.2 6.4 5.5 8.0 7.9 8.8 6.6 7.6 7.8 6.5 6.5 6.5 7.2 7.1 6.5 6.5 6.5 6.5 6.5 6.5 6.5 6.5 6.5 6.5 6.5 6.5 6.5 6.5 6.5 6.5 6.5 6.5 6.5 6.5 6.5 6.5 6.5 6.5
8.4 8.5 8.3 8.1 8.1 8.1 8.1 8.0 7.7 7.2 6.4 6.9 7.7 6.5 8.2 7.0 6.8 6.9 6.5 6.5 6.9 6.7 7.3 6.5 6.5 6.5 6.5 6.5 6.5 6.5 6.5 6.5 7.0 6.7 6.5 6.5 6.5 6.5 6.5 6.5 6.5 6.5 6.5 6.5 6.5 6.5 6.5
8.7 8.6 8.4 8.3 8.3 8.2 8.1 8.0 7.7 7.2 6.3 7.7 7.8 7.8 8.5 7.7 6.5 6.5 6.6 6.5 6.8 6.5 6.5 6.5 6.5 6.5 6.5 6.5 6.5 6.5 6.5 6.8 7.0 6.5 6.5 6.5 6.5 6.5 6.5 6.5 6.5 6.5 6.5 6.5 6.5 6.5 6.5
8.3 8.7 8.6 8.4 8.3 8.3 8.2 8.0 7.7 7.3 6.2 7.8 7.9 6.5 7.8 8.2 7.9 6.6 6.5 6.5 6.5 7.2 6.7 6.9 6.5 6.7 6.5 6.5 6.5 6.5 6.5 6.5 7.0 6.9 6.8 6.7 6.5 6.5 6.5 6.5 6.5 6.5 6.5 6.5 6.5 6.5 6.5
7.7 8.3 8.7 8.5 8.5 8.4 8.3 8.1 7.9 7.5 6.5 8.1 8.0 6.8 7.5 6.5 6.6 6.5 6.6 6.5 6.5 6.5 6.8 7.0 6.5 6.5 6.5 6.5 6.5 6.5 6.5 6.5 6.7 6.7 6.6 6.5 6.5 6.5 6.5 6.5 6.5 6.5 6.5 6.5 6.5 6.5 6.5
7.2 7.6 8.6 8.6 8.5 8.5 8.3 8.2 7.9 7.7 6.7 8.8 7.3 7.1 7.9 7.3 7.2 6.5 6.5 6.5 6.5 6.5 6.5 6.5 6.5 6.5 6.5 6.5 6.5 6.5 6.5 6.5 6.5 6.5 6.5 6.5 6.5 6.5 6.5 6.5 6.5 6.5 6.5 6.5 6.5 6.5 6.5
8.5 8.4 8.3 8.4 8.4 8.4 8.2 8.2 7.9 7.8 7.7 8.8 6.7 7.5 7.9 7.0 6.6 6.5 6.5 6.5 6.5 6.6 6.8 7.1 6.6 6.5 6.5 6.5 7.1 7.3 7.5 7.2 6.7 6.5 6.5 6.5 6.5 6.5 6.5 6.5 6.5 6.5 6.5 6.5 6.5 6.5 6.5
8.2 8.8 8.8 8.6 8.3 8.4 8.3 8.2 8.0 7.6 7.4 9.3 8.1 7.2 7.3 6.5 6.5 6.5 6.5 6.7 6.5 6.6 6.5 7.1 7.4 6.6 7.3 8.5 8.2 7.9 7.5 7.2 7.0 6.6 6.7 6.5 6.5 6.5 6.5 6.5 6.5 6.5 6.5 6.5 6.5 6.5 6.5
8.1 8.0 8.7 8.6 8.4 8.2 8.1 8.0 7.9 7.9 7.0 9.2 8.3 8.7 7.7 6.5 6.8 6.6 6.6 6.6 7.0 7.2 6.7 6.9 7.4 7.9 8.5 7.7 6.5 6.5 6.5 6.5 6.5 6.5 6.5 6.5 6.5 6.5 6.5 6.5 6.5 6.5 6.5 6.5 6.5 6.5 6.5
8.4 8.6 8.4 8.3 8.0 8.1 7.9 8.0 7.9 7.6 7.2 8.9 9.3 9.5 8.5 6.9 6.6 7.4 6.8 7.0 6.5 6.5 6.5 7.0 8.1 8.6 8.0 6.5 6.5 6.5 6.5 6.5 6.5 6.5 6.5 6.5 6.5 6.5 6.5 6.5 6.5 6.5 6.5 7.0 6.5 6.5 6.5
8.8 8.6 8.3 8.2 8.1 8.1 8.0 8.1 8.1 7.8 7.4 8.5 9.2 9.1 8.7 7.1 8.0 7.9 6.8 6.8 7.5 6.9 6.5 7.0 7.3 7.2 7.7 6.5 6.5 6.5 6.5 6.5 6.5 6.5 6.5 6.5 6.5 6.5 6.5 6.5 6.5 6.5 6.6 7.1 6.5 6.5 7.0
8.7 8.6 8.4 8.3 8.2 8.0 7.9 7.8 7.9 8.0 7.7 8.2 9.2 8.2 9.0 7.8 8.2 8.4 8.4 7.7 7.7 7.5 6.5 7.1 6.9 7.0 6.6 6.5 6.5 6.5 6.5 6.5 6.5 6.5 6.5 6.5 6.5 6.5 6.5 6.5 6.5 7.0 6.7 6.5 6.7 7.1 7.3
8.9 8.7 8.4 8.1 7.9 7.9 8.0 7.8 7.8 7.9 7.6 7.8 8.8 8.1 9.0 8.3 8.2 8.7 9.1 9.2 9.0 8.7 8.0 7.7 7.0 6.8 7.0 6.5 6.5 6.5 6.5 6.5 6.5 6.5 6.5 6.5 6.5 6.5 6.5 6.5 6.7 7.3 7.1 7.3 7.3 7.0 7.1
Wind_Speed
18 16 14 12 10 8 6 4 3 2 3 5 8 10 11 13 15 17 19 19 22 24 21 20 14 12 9 6 9 3 1 2 5 9 10 11 12 11 13 9 15 17 19 18 17 19 22
19 16 13 13 11 9 7 5 4 4 3 5 8 10 12 14 17 20 22 23 23 24 21 21 12 7 7 9 3 2 2 3 8 9 9 9 6 9 8 10 13 3 9 14 13 16 19
19 16 15 14 12 10 7 5 2 3 1 5 8 9 13 17 19 22 22 26 25 25 22 16 6 10 9 14 2 3 5 7 6 12 12 11 8 9 4 8 10 10 14 15 17 18 18
21 17 13 12 13 9 7 4 4 2 2 5 7 9 13 18 21 23 26 26 25 22 10 1 14 9 7 2 6 10 9 11 11 9 10 7 8 12 10 9 10 10 12 15 6 5 9
19 17 12 13 10 8 6 4 3 3 3 5 8 11 14 18 22 25 27 24 16 4 7 15 8 5 6 2 5 1 7 5 5 9 7 3 5 11 7 11 11 10 10 11 11 11 13
21 17 15 11 8 9 7 5 4 2 1 4 8 12 15 18 22 25 25 14 3 7 6 3 1 4 5 2 5 5 2 6 6 8 9 9 8 9 10 10 9 7 10 11 10 4 14
19 19 15 13 12 10 6 4 4 4 1 5 8 12 15 18 22 20 11 2 2 5 3 8 8 11 15 10 10 5 1 5 8 10 11 13 11 15 16 16 17 14 13 17 16 16 19
21 17 15 13 9 8 5 7 7 4 2 5 8 11 14 17 15 14 7 5 4 4 8 5 8 8 12 8 5 8 7 8 10 13 8 7 15 14 12 13 16 16 15 16 16 12 12
14 12 11 13 11 8 6 7 6 4 3 5 8 11 14 19 4 3 11 7 2 4 5 3 3 3 3 5 3 3 8 11 10 13 12 14 5 3 12 13 13 14 14 12 13 14 19
14 12 11 12 12 9 7 6 5 3 3 6 9 11 14 19 3 3 3 5 6 6 3 4 2 3 3 3 4 2 5 7 8 10 9 10 10 11 9 12 10 10 3 6 9 9 9
15 12 12 12 11 8 7 6 5 3 4 7 8 9 12 11 3 1 5 10 2 4 4 3 4 4 1 6 7 4 5 8 8 8 6 2 5 6 13 17 10 9 3 7 10 12 14
16 13 11 9 9 7 6 6 4 2 3 6 8 10 12 1 2 3 10 9 4 4 2 3 2 5 10 1 1 4 5 5 4 7 11 13 4 6 9 5 9 3 8 12 12 9 8
16 12 9 7 6 7 6 5 5 2 4 7 8 9 6 4 4 12 9 3 4 4 2 4 3 8 11 6 4 4 7 8 7 5 7 4 13 11 10 10 8 10 8 5 7 5 6
15 12 9 8 5 8 10 8 3 1 4 6 8 6 1 4 9 9 4 4 6 4 3 5 5 13 6 6 3 6 5 10 10 9 7 6 5 8 9 13 3 10 11 6 6 4 6
15 13 10 9 8 9 8 6 2 2 6 7 3 1 1 6 9 5 4 3 5 3 4 9 12 9 6 2 6 6 8 8 3 10 7 4 5 4 8 4 9 6 7 4 6 13 7
16 12 9 8 10 7 6 5 2 2 5 6 1 2 3 12 12 3 1 3 1 3 6 4 5 3 7 7 8 7 6 4 4 3 7 3 8 5 3 6 6 7 2 3 5 4 5
15 12 10 10 9 7 6 5 3 3 4 2 1 2 3 13 5 2 3 3 1 1 5 4 4 7 9 11 9 10 7 5 8 7 7 7 8 5 6 10 8 7 7 3 2 5 4
16 12 10 10 7 8 7 5 4 2 2 1 1 1 4 7 2 2 4 2 3 3 2 4 6 8 11 12 16 15 16 9 9 9 7 3 5 11 16 8 8 10 8 8 4 4 2
16 12 10 9 8 8 8 6 4 1 3 1 2 2 1 4 3 4 4 3 1 2 4 3 4 5 9 12 8 11 16 15 5 4 6 7 5 7 8 7 10 11 7 5 3 2 3
18 14 10 11 6 9 8 5 3 2 3 0 2 3 2 3 4 6 3 3 3 2 2 3 6 6 9 10 13 11 14 7 5 12 4 8 7 11 9 2 2 9 11 10 5 3 4
16 14 11 10 9 7 7 5 5 2 2 1 2 2 2 4 4 4 2 1 1 2 2 1 3 1 5 6 14 12 18 18 17 4 2 3 7 12 5 2 13 4 7 8 11 10 6
18 18 11 12 9 8 7 7 6 6 2 1 2 2 2 5 4 3 2 1 2 1 3 2 3 10 12 9 13 14 11 12 10 4 3 1 4 10 7 8 16 9 10 8 8 5 9
15 16 15 14 11 10 9 8 7 9 3 2 2 2 2 4 4 2 3 2 2 7 4 7 9 14 11 7 10 17 17 16 17 14 4 3 5 10 5 8 8 10 11 5 4 4 4
14 12 13 12 12 11 10 9 9 12 1 1 3 2 2 4 3 2 2 6 8 9 11 12 13 9 8 17 18 18 19 19 19 18 11 3 11 4 3 3 6 7 3 1 3 2 8
14 15 15 13 13 13 10 9 7 16 8 2 3 2 1 2 2 4 6 6 7 7 11 12 10 7 15 12 7 9 7 9 13 18 12 12 4 3 2 3 6 3 6 5 6 4 10
16 18 15 16 13 16 13 10 9 14 11 4 3 2 2 1 3 4 4 3 5 5 5 5 8 11 6 3 4 5 4 5 6 5 6 7 12 7 3 1 1 7 3 8 7 4 11
17 15 15 12 15 14 12 12 12 13 16 6 3 5 2 1 3 4 3 4 2 4 5 6 10 4 1 4 4 5 8 8 4 8 6 5 7 10 6 3 2 6 10 6 6 4 12
16 13 12 15 14 13 12 13 12 13 19 8 3 11 4 3 4 6 5 6 7 5 5 6 6 1 4 4 3 4 3 4 2 2 5 6 6 4 3 3 3 14 2 4 6 5 7
17 15 16 16 14 15 12 10 10 9 19 14 3 9 7 2 3 4 9 12 14 11 7 2 5 5 3 4 4 4 4 6 6 3 3 2 5 3 5 4 5 8 8 6 8 7 5
Wind_Direction
190 187 188 185 194 201 213 216 232 259 292 317 324 324 327 323 322 323 320 317 314 315 311 304 305 307 295 250 260 110 317 26 164 188 199 195 197 214 229 233 242 242 257 262 260 255 260
184 180 196 193 197 199 205 221 238 248 287 337 330 322 323 320 322 321 318 314 312 310 306 297 290 260 250 261 56 205 247 272 231 209 209 214 229 234 269 239 235 296 261 262 261 258 253
181 185 195 198 199 197 203 234 256 141 87 342 338 330 327 324 324 319 317 312 312 306 301 293 226 206 245 257 326 247 275 257 257 234 234 220 235 232 294 247 256 265 271 266 256 253 248
176 189 196 198 186 202 195 161 127 122 31 3 355 350 333 327 321 321 315 313 310 309 304 253 162 191 253 216 293 271 248 245 232 229 252 248 213 250 242 277 260 266 263 267 248 241 235
179 177 176 163 160 159 170 178 156 106 40 5 354 342 337 331 327 320 312 315 320 344 126 129 164 241 278 134 244 243 203 249 200 199 219 272 194 229 224 246 264 233 268 258 277 252 273
177 175 171 166 168 188 187 179 164 149 40 0 348 342 336 333 327 319 320 321 173 157 181 233 76 234 240 20 336 318 232 253 228 167 196 209 210 221 215 226 241 252 241 262 265 257 297
176 173 173 171 174 181 193 197 185 163 94 3 347 338 337 333 331 331 330 213 258 199 226 274 324 283 290 313 300 247 265 222 204 200 202 197 220 225 230 228 258 276 272 276 276 277 282
171 171 180 171 172 153 121 142 131 131 50 3 346 338 329 335 337 344 13 65 53 322 305 286 267 263 271 284 277 252 248 222 204 215 203 186 232 253 243 240 237 250 263 269 281 278 274
160 160 162 159 151 136 128 125 123 92 24 347 333 335 339 338 339 36 63 65 341 214 270 288 226 264 347 178 255 273 216 219 227 226 221 246 279 323 237 230 233 239 256 277 286 298 271
148 142 140 147 140 130 127 126 111 80 1 339 341 342 348 337 218 19 102 7 336 206 277 94 138 120 177 256 239 245 224 226 214 256 236 261 279 247 239 236 225 247 232 267 279 291 286
137 131 140 139 131 131 132 130 113 81 358 339 347 348 352 2 349 36 350 330 329 201 297 85 91 106 271 259 320 139 185 186 231 216 207 230 249 225 233 242 222 260 275 278 279 272 292
140 152 142 138 135 146 156 149 126 60 344 335 338 341 336 239 278 347 321 311 199 243 208 129 76 352 351 4 274 138 187 234 285 238 230 262 249 248 250 247 211 275 273 267 256 255 259
141 142 143 154 161 171 178 168 130 88 345 339 334 334 322 316 332 325 306 215 236 243 76 47 349 343 325 317 305 259 216 208 229 229 211 226 239 230 233 235 221 231 264 263 219 195 252
145 147 156 164 151 147 133 122 113 45 346 346 339 321 5 34 328 326 281 224 247 60 8 15 325 307 284 339 250 321 252 252 223 242 274 276 212 192 187 217 250 213 222 265 283 254 301
153 154 153 140 137 137 128 123 122 336 340 347 313 183 15 358 338 317 258 227 7 9 354 337 314 289 266 297 327 310 251 276 294 218 238 231 232 153 193 186 214 157 214 290 278 253 267
150 151 152 156 150 141 142 139 156 307 341 360 240 149 47 338 332 296 217 80 93 25 334 327 287 346 295 336 317 342 267 38 336 336 281 271 262 219 153 185 201 257 94 230 219 249 251
149 146 141 148 153 150 146 154 184 259 355 318 183 187 30 334 288 65 89 78 13 7 343 305 299 289 290 300 302 304 282 77 3 336 301 243 236 173 175 213 217 187 216 194 264 276 297
157 154 156 153 152 147 137 137 151 242 333 319 173 117 2 317 83 59 89 53 353 343 336 277 284 287 279 291 277 268 261 292 355 345 322 232 265 246 242 245 261 239 242 204 250 178 257
170 159 152 146 164 146 135 127 129 254 342 144 84 88 55 289 97 105 110 140 245 348 1 342 289 292 309 293 292 260 265 271 321 17 352 345 232 242 232 219 219 223 204 115 67 21 276
188 172 163 157 132 154 137 137 154 206 119 283 147 126 110 71 79 110 117 90 103 84 96 305 302 326 328 297 266 257 267 264 270 302 211 314 253 250 270 333 275 191 187 190 188 209 280
177 171 174 171 159 156 145 148 155 176 143 232 19 94 17 150 116 92 126 80 23 343 206 304 151 54 2 301 308 263 259 265 280 215 270 148 255 224 212 356 294 248 202 200 213 239 257
161 179 192 167 167 182 169 173 169 184 170 79 119 166 177 125 133 133 82 89 319 346 287 310 247 308 313 279 292 302 323 306 278 342 287 233 266 196 200 192 246 246 237 243 245 260 265
177 180 177 167 177 188 176 176 179 184 247 108 60 347 261 146 146 165 106 90 279 320 272 246 313 311 304 318 283 289 284 269 259 279 279 256 276 182 184 182 249 253 230 206 250 274 316
181 183 178 177 186 180 184 187 185 180 200 103 134 144 172 144 189 154 238 293 296 294 275 294 296 280 306 313 295 271 252 251 251 252 229 260 287 318 134 212 225 91 353 46 287 315 13
187 177 183 190 195 187 188 185 183 187 173 169 149 184 160 176 250 237 253 270 285 274 270 288 302 305 314 297 287 292 253 235 239 236 215 219 258 277 249 206 325 200 54 30 2 67 26
188 181 196 200 211 190 189 187 178 182 173 177 170 120 108 154 230 283 265 264 289 296 284 279 311 312 291 285 265 262 277 251 174 160 174 215 250 265 180 242 230 77 38 353 320 229 13
188 192 197 207 188 184 191 195 193 190 182 189 160 175 127 206 248 220 246 310 306 272 281 308 335 318 305 306 273 272 217 224 200 188 186 162 211 227 229 244 260 36 338 325 251 22 1
196 204 203 190 191 193 202 203 203 208 179 182 160 192 193 213 270 230 236 249 245 249 279 342 311 26 308 308 307 334 335 32 287 108 164 194 189 190 206 243 246 1 41 344 348 340 10
200 207 209 194 199 185 184 189 192 184 173 182 186 184 203 258 315 315 277 267 253 264 292 277 296 301 321 301 353 302 320 358 350 148 32 100 13 348 346 30 57 38 57 35 22 60 43